When you browse on this site, cookies collect data to enhance your experience and personalize the content and advertising you see.
Visit our Privacy Policy to learn more. By continuing to use the site, you agree to this use of cookies and data.
  • In Sweden
  • List of Countries
  • For 7 days
  • Water Temperature
  • Weather Map
  • Weather Widgets
  • user-avatar
    Login

    Hourly Weather Lysmanovo

    Today, 10 December, Tuesday

    Time Temperature Precipitation Wind Pressure Humidity
    00:00 -2°C° 0 mm 5 mps 744 mmHg 86%
    01:00 -2°C° 0 mm 5 mps 744 mmHg 84%
    02:00 -2°C° 0 mm 5 mps 744 mmHg 84%
    03:00 -2°C° 0 mm 5 mps 744 mmHg 84%
    04:00 -3°C° 0 mm 6 mps 744 mmHg 83%
    05:00 -3°C° 0 mm 6 mps 744 mmHg 85%
    06:00 -2°C° 0 mm 5 mps 744 mmHg 86%
    07:00 -2°C° 0 mm 5 mps 744 mmHg 87%
    08:00 -2°C° 0.1 mm 5 mps 744 mmHg 88%
    09:00 -2°C° 0.1 mm 5 mps 744 mmHg 89%
    10:00 -2°C° 0.1 mm 5 mps 744 mmHg 89%
    11:00 -2°C° 0 mm 5 mps 744 mmHg 90%
    12:00 -2°C° 0 mm 5 mps 744 mmHg 92%
    13:00 -2°C° 0 mm 4 mps 744 mmHg 93%
    14:00 -1°C° 0.1 mm 4 mps 744 mmHg 94%
    15:00 -1°C° 0.1 mm 4 mps 744 mmHg 96%
    16:00 -1°C° 0.1 mm 4 mps 744 mmHg 97%
    17:00 -1°C° 0.2 mm 4 mps 744 mmHg 97%
    18:00 0°C° 0.2 mm 4 mps 745 mmHg 97%
    19:00 0°C° 0.2 mm 4 mps 745 mmHg 96%
    20:00 +1°C° 0 mm 3 mps 745 mmHg 97%
    21:00 +1°C° 0 mm 3 mps 745 mmHg 97%
    22:00 +2°C° 0 mm 2 mps 746 mmHg 97%
    23:00 0°C° 0 mm 3 mps 746 mmHg 97%

    Tomorrow, 11 December, Wednesday

    Time Temperature Precipitation Wind Pressure Humidity
    00:00 0°C° 0 mm 3 mps 746 mmHg 96%
    01:00 0°C° 0 mm 3 mps 746 mmHg 96%
    02:00 0°C° 0 mm 3 mps 746 mmHg 96%
    03:00 0°C° 0 mm 3 mps 746 mmHg 95%
    04:00 0°C° 0 mm 3 mps 746 mmHg 95%
    05:00 0°C° 0 mm 3 mps 745 mmHg 95%
    06:00 0°C° 0 mm 3 mps 745 mmHg 96%
    07:00 -1°C° 0 mm 4 mps 744 mmHg 97%
    08:00 -1°C° 0.1 mm 4 mps 744 mmHg 97%
    09:00 -1°C° 0.1 mm 4 mps 744 mmHg 97%
    10:00 -1°C° 0.1 mm 4 mps 744 mmHg 97%
    11:00 -1°C° 0.2 mm 4 mps 743 mmHg 97%
    12:00 0°C° 0.2 mm 4 mps 743 mmHg 97%
    13:00 0°C° 0.2 mm 4 mps 742 mmHg 97%
    14:00 -1°C° 0.3 mm 4 mps 741 mmHg 97%
    15:00 -1°C° 0.3 mm 4 mps 741 mmHg 97%
    16:00 -1°C° 0.3 mm 4 mps 740 mmHg 97%
    17:00 -2°C° 0.5 mm 4 mps 740 mmHg 97%
    18:00 -2°C° 0.5 mm 4 mps 740 mmHg 97%
    19:00 -2°C° 0.5 mm 4 mps 739 mmHg 97%
    20:00 -1°C° 0.7 mm 3 mps 739 mmHg 97%
    21:00 -1°C° 0.7 mm 3 mps 739 mmHg 98%
    22:00 -1°C° 0.7 mm 3 mps 739 mmHg 98%
    23:00 -2°C° 0.7 mm 4 mps 739 mmHg 97%

    Day after tomorrow, 12 December, Thursday

    Time Temperature Precipitation Wind Pressure Humidity
    00:00 -3°C° 0.7 mm 4 mps 739 mmHg 96%
    01:00 -4°C° 0.7 mm 5 mps 739 mmHg 94%
    02:00 -5°C° 0.2 mm 5 mps 740 mmHg 92%
    03:00 -6°C° 0.2 mm 5 mps 741 mmHg 90%
    04:00 -8°C° 0.2 mm 5 mps 741 mmHg 87%
    05:00 -8°C° 0 mm 5 mps 742 mmHg 87%
    06:00 -10°C° 0 mm 5 mps 742 mmHg 86%
    07:00 -11°C° 0 mm 5 mps 743 mmHg 86%
    08:00 -11°C° 0 mm 5 mps 743 mmHg 86%
    09:00 -11°C° 0 mm 5 mps 744 mmHg 86%
    10:00 -11°C° 0 mm 4 mps 745 mmHg 86%
    11:00 -10°C° 0 mm 4 mps 745 mmHg 86%
    12:00 -10°C° 0 mm 4 mps 746 mmHg 85%
    13:00 -10°C° 0 mm 4 mps 746 mmHg 85%
    14:00 -11°C° 0 mm 4 mps 746 mmHg 86%
    15:00 -11°C° 0 mm 4 mps 747 mmHg 87%
    16:00 -11°C° 0 mm 4 mps 747 mmHg 88%
    17:00 -11°C° 0 mm 4 mps 748 mmHg 88%
    18:00 -10°C° 0 mm 3 mps 748 mmHg 88%
    19:00 -12°C° 0 mm 3 mps 748 mmHg 88%
    20:00 -12°C° 0 mm 3 mps 748 mmHg 88%
    21:00 -12°C° 0 mm 3 mps 749 mmHg 88%
    22:00 -12°C° 0 mm 3 mps 749 mmHg 88%
    23:00 -12°C° 0 mm 3 mps 749 mmHg 89%

    13 December, Friday

    Time Temperature Precipitation Wind Pressure Humidity
    00:00 -12°C° 0 mm 3 mps 749 mmHg 90%
    01:00 -12°C° 0 mm 3 mps 749 mmHg 91%
    02:00 -13°C° 0 mm 3 mps 750 mmHg 92%
    03:00 -12°C° 0 mm 2 mps 750 mmHg 92%
    04:00 -12°C° 0 mm 2 mps 750 mmHg 93%
    05:00 -12°C° 0 mm 2 mps 750 mmHg 93%
    06:00 -13°C° 0 mm 2 mps 750 mmHg 94%
    07:00 -11°C° 0 mm 1 mps 750 mmHg 94%
    08:00 -11°C° 0 mm 1 mps 751 mmHg 94%
    09:00 -11°C° 0 mm 1 mps 751 mmHg 93%
    10:00 -10°C° 0 mm 1 mps 751 mmHg 93%
    11:00 -10°C° 0 mm 1 mps 751 mmHg 91%
    12:00 -9°C° 0 mm 1 mps 751 mmHg 90%
    13:00 -8°C° 0 mm 1 mps 751 mmHg 89%
    14:00 -9°C° 0 mm 1 mps 751 mmHg 90%
    15:00 -9°C° 0 mm 1 mps 751 mmHg 92%
    16:00 -10°C° 0 mm 1 mps 752 mmHg 94%
    17:00 -10°C° 0 mm 1 mps 752 mmHg 93%
    18:00 -9°C° 0 mm 1 mps 752 mmHg 93%
    19:00 -9°C° 0 mm 1 mps 752 mmHg 93%
    20:00 -9°C° 0 mm 1 mps 752 mmHg 92%
    21:00 -9°C° 0 mm 1 mps 752 mmHg 91%
    22:00 -9°C° 0 mm 1 mps 752 mmHg 90%
    23:00 -9°C° 0 mm 1 mps 752 mmHg 90%

    14 December, Saturday

    Time Temperature Precipitation Wind Pressure Humidity
    00:00 -9°C° 0 mm 1 mps 752 mmHg 90%
    01:00 -10°C° 0 mm 1 mps 752 mmHg 90%
    02:00 -10°C° 0 mm 1 mps 753 mmHg 90%
    03:00 -10°C° 0 mm 1 mps 753 mmHg 90%
    04:00 -10°C° 0 mm 1 mps 753 mmHg 90%
    05:00 -10°C° 0 mm 1 mps 753 mmHg 90%
    06:00 -10°C° 0 mm 1 mps 753 mmHg 89%
    07:00 -11°C° 0 mm 1 mps 753 mmHg 89%
    08:00 -10°C° 0 mm 1 mps 754 mmHg 88%
    09:00 -10°C° 0 mm 1 mps 754 mmHg 87%
    10:00 -10°C° 0 mm 1 mps 754 mmHg 86%
    11:00 -9°C° 0 mm 1 mps 754 mmHg 85%
    12:00 -8°C° 0 mm 1 mps 754 mmHg 84%
    13:00 -8°C° 0 mm 1 mps 754 mmHg 82%
    14:00 -8°C° 0 mm 1 mps 754 mmHg 85%
    15:00 -9°C° 0 mm 1 mps 754 mmHg 87%
    16:00 -10°C° 0 mm 1 mps 755 mmHg 89%
    17:00 -10°C° 0 mm 1 mps 755 mmHg 89%
    18:00 -10°C° 0 mm 1 mps 755 mmHg 89%
    19:00 -10°C° 0 mm 1 mps 755 mmHg 90%
    20:00 -10°C° 0 mm 1 mps 755 mmHg 90%
    21:00 -10°C° 0 mm 0 mps 755 mmHg 89%
    22:00 -11°C° 0 mm 0 mps 755 mmHg 89%
    23:00 -11°C° 0 mm 0 mps 755 mmHg 89%

    15 December, Sunday

    Time Temperature Precipitation Wind Pressure Humidity
    00:00 -11°C° 0 mm 0 mps 755 mmHg 89%
    01:00 -11°C° 0 mm 0 mps 755 mmHg 89%
    02:00 -11°C° 0 mm 0 mps 755 mmHg 89%
    03:00 -11°C° 0 mm 0 mps 755 mmHg 89%
    04:00 -11°C° 0 mm 0 mps 755 mmHg 89%
    05:00 -11°C° 0 mm 0 mps 755 mmHg 88%
    06:00 -11°C° 0 mm 0 mps 755 mmHg 88%
    07:00 -11°C° 0 mm 0 mps 755 mmHg 88%
    08:00 -11°C° 0 mm 0 mps 755 mmHg 87%
    09:00 -11°C° 0 mm 0 mps 755 mmHg 87%
    10:00 -11°C° 0 mm 0 mps 755 mmHg 86%
    11:00 -10°C° 0 mm 0 mps 755 mmHg 85%
    12:00 -9°C° 0 mm 0 mps 754 mmHg 84%
    13:00 -9°C° 0 mm 0 mps 754 mmHg 83%
    14:00 -9°C° 0 mm 0 mps 754 mmHg 83%
    15:00 -10°C° 0 mm 0 mps 754 mmHg 84%
    16:00 -11°C° 0 mm 0 mps 754 mmHg 85%
    17:00 -11°C° 0 mm 0 mps 754 mmHg 85%
    18:00 -11°C° 0 mm 0 mps 754 mmHg 84%
    19:00 -11°C° 0 mm 0 mps 754 mmHg 84%
    20:00 -11°C° 0 mm 0 mps 753 mmHg 84%
    21:00 -12°C° 0 mm 0 mps 753 mmHg 83%
    22:00 -12°C° 0 mm 0 mps 753 mmHg 83%
    23:00 -12°C° 0 mm 0 mps 753 mmHg 83%
    Show more